Location: Redwood City
(37.4850°N, 122.2350°W)
Time: 17:46:11
(UTC-08:00)

ISS - Visible Passes

Search period start: 01 February 2015 00:00
Search period end: 11 February 2015 00:00
Orbit: 400 x 408 km, 51.6° (Epoch: 01 February)

Date Brightness Start Highest point End Pass type
(mag) Time Alt. Az. Time Alt. Az. Time Alt. Az.
02 Feb -1.2 18:44:30 10° SSE 18:45:53 14° SE 18:45:53 14° SE visible
03 Feb -2.0 19:26:50 10° SW 19:28:56 37° SW 19:28:56 37° SW visible
04 Feb -2.6 18:34:45 10° SSW 18:37:46 36° SE 18:39:11 24° E visible
04 Feb 0.2 20:11:36 10° W 20:11:52 11° W 20:11:52 11° W visible
05 Feb -2.3 19:18:39 10° WSW 19:21:45 39° NW 19:22:00 39° NNW visible
06 Feb -3.3 18:26:00 10° SW 18:29:15 80° NW 18:32:00 14° NE visible
06 Feb 0.0 20:04:22 10° NW 20:04:40 11° NW 20:04:40 11° NW visible
07 Feb -1.2 19:10:56 10° WNW 19:13:28 20° NNW 19:14:34 17° N visible
08 Feb -1.9 18:17:48 10° W 18:20:47 32° NNW 18:23:47 10° NNE visible
09 Feb -0.6 19:03:42 10° NW 19:05:12 12° NNW 19:06:39 10° N visible
10 Feb -1.0 18:10:02 10° WNW 18:12:22 18° NNW 18:14:40 10° NNE visible
